SCP
0 0 0 0 0 0 0 0 0 0 0 0 0 0 0 0 0 0 0 0 0 0 0 0 0 0 0 0 0 0 0 0 0 0 0 0 0 0
0 0 0 0 0 0 0 0 0 0 0 0 0 0 0 0 0 0 0 0 0 0 0 0 0 0 0 0 0 0 0 0 0 0 0 0 0 0
0 0 0 0 0 0 0 0 0 0 0 0 0 0 0 0 0 0 0 0 0 0 0 0 0 0 0 0 0 0 0 0 0 0 0 0 0 0
0 0 0 0 0 0 0 0 0 0 0 0 0 0 0 0 0 0 0 0 0 0 0 0 0 0 0 0 0 0 0 0 0 0 0 0 0 0
0 0 0 0 0 0 0 0 0 0 0 0 0 0 0 0 0 0 0 0 0 0 0 0 0 0 0 0 0 0 0 0 0 0 0 0 0 0
0 0 0 0 0 0 0 0 0 0 0 0 0 0 0 0 0 0 0 0 0 0 0 0 0 0 0 0 0 0 0 0 0 0 0 0 0 0
0 0 0 0 0 0 0 0 0 0 0 0 0 0 0 0 0 0 0 0 0 0 0 0 0 0 0 0 0 0 0 0 0 0 0 0 0 0
0 0 0 0 0 0 0 0 0 0 0 0 0 0 0 0 0 0 0 0 0 0 0 0 0 0 0 0 0 0 0 0 0 0 0 0 0 0
0 0 0 0 0 0 0 0 0 0 0 0 0 0 0 0 0 0 0 0 0 0 0 0 0 0 0 0 0 0 0 0 0 0 0 0 0 0
0 0 0 0 0 0 0 0 0 0 0 0 0 0 0 0 0 0 0 0 0 0 0 0 0 0 0 0 0 0 0 0 0 0 0 0 0 0
0 0 0 0 0 0 0 0 0 0 0 0 0 0 0 0 0 0 0 0 0 0 0 0 0 0 0 0 0 0 0 0 0 0 0 0 0 0
0 0 0 0 0 0 0 0 0 0 0 0 0 0 0 0 0 0 0 0 0 0 0 0 0 0 0 0 0 0 0 0 0 0 0 0 0 0
0 0 0 0 0 0 0 0 0 0 0 0 0 0 0 0 0 0 0 0 0 0 0 0 0 0 0 0 0 0 0 0 0 0 0 0 0 0
0 0 0 0 0 0 0 0 0 0 0 0 0 0 0 0 0 0 0 0 0 0 0 0 0 0 0 0 0 0 0 0 0 0 0 0 0 0
0 0 0 0 0 0 0 0 0 0 0 0 0 0 0 0 0 0 0 0 0 0 0 0 0 0 0 0 0 0 0 0 0 0 0 0 0 0
0 0 0 0 0 0 0 0 0 0 0 0 0 0 0 0 0 0 0 0 0 0 0 0 0 0 0 0 0 0 0 0 0 0 0 0 0 0
0 0 0 0 0 0 0 0 0 0 0 0 0 0 0 0 0 0 0 0 0 0 0 0 0 0 0 0 0 0 0 0 0 0 0 0 0 0
0 0 0 0 0 0 0 0 0 0 0 0 0 0 0 0 0 0 0 0 0 0 0 0 0 0 0 0 0 0 0 0 0 0 0 0 0 0
0 0 0 0 0 0 0 0 0 0 0 0 0 0 0 0 0 0 0 0 0 0 0 0 0 0 0 0 0 0 0 0 0 0 0 0 0 0
0 0 0 0 0 0 0 0 0 0 0 0 0 0 0 0 0 0 0 0 0 0 0 0 0 0 0 0 0 0 0 0 0 0 0 0 0 0
0 0 0 0 0 0 0 0 0 0 0 0 0 0 0 0 0 0 0 0 0 0 0 0 0 0 0 0 0 0 0 0 0 0 0 0 0 0
0 0 0 0 0 0 0 0 0 0 0 0 0 0 0 0 0 0 0 0 0 0 0 0 0 0 0 0 0 0 0 0 0 0 0 0 0 0
0 0 0 0 0 0 0 0 0 0 0 0 0 0 0 0 0 0 0 0 0 0 0 0 0 0 0 0 0 0 0 0 0 0 0 0 0 0
Wind_Speed
3 2 2 1 1 1 1 1 2 2 3 2 1 2 1 1 3 2 2 6 7 7 7 7 7 7 7 8 8 9 9 10 10 9 9 10 11 12
2 3 2 2 1 1 1 1 1 2 3 2 1 2 2 2 4 3 3 6 7 7 7 7 7 7 7 7 7 8 9 10 9 10 10 10 11 12
3 3 3 2 2 1 1 1 1 1 3 3 2 2 2 3 4 3 3 2 3 6 7 7 7 6 7 7 7 8 9 9 9 10 10 11 11 12
4 3 3 2 2 1 1 1 1 1 2 4 3 2 2 2 3 3 3 3 3 5 6 7 7 6 7 7 7 8 9 9 9 10 10 11 12 12
4 4 3 3 2 1 1 1 1 1 1 2 3 2 2 2 3 3 4 3 4 4 5 6 7 7 7 8 8 8 9 9 9 10 10 11 11 12
4 4 4 4 4 3 2 2 1 1 1 1 2 2 2 2 2 3 4 3 4 3 4 5 7 8 8 8 8 8 9 9 9 10 10 10 11 12
3 3 4 4 5 4 3 3 2 2 1 2 2 2 2 2 2 2 3 4 4 2 3 4 3 3 4 6 7 8 8 9 9 10 10 10 11 12
3 3 3 3 4 4 4 4 3 3 2 2 2 3 3 2 2 2 3 3 4 2 3 4 2 3 3 2 6 8 9 9 10 10 10 10 11 11
3 3 2 2 3 2 3 3 3 4 4 3 4 4 3 3 2 3 3 3 4 3 3 4 3 4 4 4 8 9 9 9 10 10 10 11 11 11
3 4 3 3 3 3 2 2 2 2 3 3 3 3 3 2 2 3 3 4 4 3 1 4 4 4 5 4 7 8 9 9 10 10 11 11 11 11
3 3 3 3 4 3 2 2 2 2 3 4 4 4 4 4 2 1 1 2 4 3 1 2 3 4 4 4 5 8 9 10 11 11 11 11 12 11
2 3 4 4 4 4 3 3 3 3 2 2 2 3 2 3 3 2 2 2 3 3 2 1 2 3 4 4 3 4 5 8 10 10 11 11 12 7
3 2 3 5 5 5 4 3 4 3 2 2 2 2 1 2 2 2 2 2 3 3 2 1 2 2 3 4 4 3 3 4 4 6 8 10 11 8
3 2 3 5 5 5 3 3 4 3 1 1 1 2 2 2 2 2 2 2 3 4 4 2 2 3 3 4 5 4 4 3 3 4 4 8 9 10
2 3 4 4 3 3 3 3 2 1 1 2 2 2 2 2 1 1 2 2 2 3 3 3 3 3 3 4 4 4 4 4 3 4 4 4 4 4
1 2 3 2 2 2 2 2 1 2 2 2 2 1 1 1 1 1 2 2 2 3 3 3 3 3 3 4 4 5 4 4 4 4 5 4 4 3
1 1 1 1 1 1 1 1 1 1 1 1 1 1 1 1 1 1 1 1 2 3 3 2 2 3 4 4 4 4 4 4 4 4 5 5 4 4
1 1 2 2 2 2 2 2 2 2 2 1 1 1 1 1 2 1 1 1 2 2 3 3 3 3 3 3 4 4 4 4 4 4 4 5 6 5
2 2 2 2 2 2 2 2 2 2 1 2 2 2 1 1 1 1 1 2 2 2 2 2 2 2 3 5 4 2 3 3 4 3 3 4 6 6
2 2 2 2 2 2 2 2 2 1 1 2 2 2 2 2 2 2 2 2 2 2 3 2 2 2 3 4 4 4 4 4 3 4 4 4 5 7
2 2 2 2 2 2 2 2 2 2 2 2 2 2 2 2 2 2 2 3 3 2 3 3 3 4 3 2 3 4 3 4 5 4 4 4 5 4
2 2 2 2 2 2 2 2 2 2 2 2 2 2 2 2 2 2 2 2 2 2 3 3 3 2 2 3 4 5 5 4 5 7 6 4 3 3
2 2 2 2 2 2 2 2 2 2 2 2 2 2 2 2 2 2 2 2 2 2 2 3 2 2 3 3 4 4 5 5 4 4 3 6 7 7
Wind_Direction
185 190 193 204 204 215 198 173 193 268 282 270 286 299 323 328 325 318 308 315 319 315 316 317 316 314 316 316 315 317 318 317 318 318 319 320 320 320
184 190 197 206 203 200 200 213 205 223 260 266 276 300 316 318 316 309 302 317 318 313 312 315 317 318 319 317 318 317 316 314 313 315 316 320 320 319
191 193 200 197 200 209 213 229 241 231 259 282 286 299 311 315 319 311 308 305 305 309 310 314 312 313 314 317 317 319 319 317 316 317 317 317 318 318
194 192 201 201 204 204 207 233 247 244 247 276 290 298 296 301 309 312 318 319 312 309 314 317 317 317 317 316 316 317 318 316 315 315 316 318 319 319
191 192 198 189 203 210 214 230 250 272 267 263 280 291 292 300 315 316 313 312 311 306 306 306 308 311 310 310 310 313 314 314 313 315 316 318 319 319
195 192 195 195 201 201 214 221 235 260 260 265 277 288 291 298 311 315 317 319 311 310 315 308 301 303 303 303 303 307 312 314 314 316 317 317 317 316
200 198 199 202 214 212 213 209 209 226 242 252 263 281 285 306 304 306 304 311 308 306 313 303 300 300 301 299 300 305 310 312 312 313 315 316 316 315
202 207 203 204 220 231 233 232 223 216 226 236 253 258 265 273 289 301 307 313 303 314 320 305 301 296 294 288 301 305 306 309 309 309 310 311 313 313
200 204 216 218 214 205 223 239 245 252 246 238 243 248 253 257 268 280 284 285 278 291 319 299 305 300 297 296 298 301 305 307 309 309 308 309 311 313
204 203 201 207 214 209 206 223 236 250 252 243 237 246 251 247 239 256 270 287 287 286 280 280 295 295 299 295 294 302 309 311 311 310 311 313 314 314
211 201 197 204 222 226 205 214 238 263 267 256 259 256 263 274 277 283 287 298 294 289 270 267 288 301 295 287 293 304 310 313 316 316 315 316 316 315
213 208 217 223 229 228 208 204 227 247 254 270 266 268 265 265 272 243 229 259 280 279 274 284 291 313 306 295 300 310 309 312 317 317 316 316 316 314
211 212 220 232 237 240 240 226 235 250 243 246 253 254 252 252 253 241 232 232 247 261 266 287 286 291 278 295 303 305 310 310 313 312 314 317 318 318
211 213 223 231 239 247 249 237 244 260 233 235 244 249 249 255 261 255 252 252 248 255 265 261 264 275 284 290 293 307 311 306 307 310 311 316 315 315
222 226 230 227 236 241 235 238 230 212 207 232 242 247 246 249 259 280 284 283 286 280 276 268 259 267 265 272 286 297 307 307 307 313 314 312 309 313
240 228 231 230 233 231 223 229 217 215 222 231 241 237 238 262 273 277 286 295 301 299 293 277 270 272 274 272 275 287 294 297 311 312 310 308 308 306
211 205 197 189 201 214 235 227 214 212 234 232 225 232 243 255 269 279 278 285 280 294 305 305 290 276 260 262 273 280 291 293 298 310 316 312 306 304
179 205 218 214 211 216 228 238 227 224 225 221 221 217 226 244 265 275 275 274 283 286 291 299 310 314 307 282 246 272 285 287 300 303 304 303 304 309
196 211 217 220 221 221 222 229 234 230 219 215 225 222 220 231 246 260 273 282 283 286 291 298 304 308 309 308 299 267 282 297 302 298 297 291 295 303
210 221 227 225 222 223 228 231 226 215 214 217 220 221 220 226 240 251 259 270 281 287 291 290 283 278 272 282 290 293 286 285 291 294 298 292 286 291
225 233 234 230 231 228 226 226 218 217 218 216 221 225 223 226 238 244 251 268 275 278 284 285 281 290 283 288 289 294 294 286 287 288 296 300 305 310
225 234 237 233 223 218 218 218 219 218 215 221 225 226 227 229 232 235 242 255 264 273 281 289 297 300 288 282 288 295 303 310 301 297 295 291 301 305
221 228 231 228 221 216 214 216 221 227 224 227 224 224 225 238 239 238 244 252 261 274 285 294 298 286 278 276 284 292 302 310 313 316 309 313 308 303